Weather History for KMTJ - March, 2014

Change the Weather History Date:

Wednesday, March 19, 2014

  Actual Average Record
Temperature  
Mean Temperature 36 °F 42 °F  
Max Temperature 51 °F 55 °F 75 °F (2004)
Min Temperature 21 °F 29 °F 21 °F (2002)
Degree Days  
Heating Degree Days 29 23  
Month to date heating degree days 434 484  
Since 1 July heating degree days 5166 5199  
Cooling Degree Days 0 0  
Month to date cooling degree days 0 0  
Year to date cooling degree days 0 0  
Moisture  
Dew Point 14 °F    
Average Humidity 47    
Maximum Humidity 77    
Minimum Humidity 17    
Precipitation  
Precipitation 0.00 in 0.03 in 0.02 in (2015)
Month to date precipitation 0.57 0.60  
Year to date precipitation 1.62 1.83  
Sea Level Pressure  
Sea Level Pressure 30.19 in    
Wind  
Wind Speed 6 mph (ESE)    
Max Wind Speed 14 mph    
Max Gust Speed 17 mph    
Visibility 10 miles    
Events      
T = Trace of Precipitation, MM = Missing Value Source: NWS Daily Summary

Daily Weather History Graph

Daily Weather History Graph

Search for Another Location

Airport or City:

Trip Planner

Search our weather history database for the weather conditions in past years. The results will help you decide how hot, cold, wet, or windy it might be!

Date:

Astronomy

Mar. 19, 2014 Rise Set
Actual Time 7:16 AM MDT 7:22 PM MDT
Civil Twilight 6:50 AM MDT 7:49 PM MDT
Nautical Twilight 6:19 AM MDT 8:20 PM MDT
Astronomical Twilight 5:47 AM MDT 8:51 PM MDT
Moon 10:41 PM MDT (3/19) 8:46 AM MDT (3/19)
Length of Visible Light 12h 58m
Length of Day
12h 06m
Waning Gibbous, 91% of the Moon is Illuminated
Mar 19
Waning Gibbous
Mar 23
Last Quarter
Mar 30
New
Apr 7
First Quarter
Apr 15
Full

Hourly Weather History & Observations

Time (MDT) Temp. Windchill Dew Point Humidity Pressure Visibility Wind Dir Wind Speed Gust Speed Precip Events Conditions
12:53 AM 27.0 °F 21.6 °F 17.1 °F 66% 30.10 in 10.0 mi ESE 4.6 mph - N/A   Clear
1:53 AM 26.1 °F 19.4 °F 16.0 °F 66% 30.11 in 10.0 mi SE 5.8 mph - N/A   Partly Cloudy
2:53 AM 26.1 °F 18.4 °F 16.0 °F 66% 30.12 in 10.0 mi SE 6.9 mph - N/A   Partly Cloudy
3:53 AM 25.0 °F 18.1 °F 16.0 °F 69% 30.14 in 10.0 mi SSE 5.8 mph - N/A   Partly Cloudy
4:53 AM 23.0 °F 14.7 °F 15.1 °F 72% 30.17 in 10.0 mi SE 6.9 mph - N/A   Clear
5:53 AM 21.9 °F 14.5 °F 15.1 °F 75% 30.20 in 10.0 mi SSE 5.8 mph - N/A   Clear
6:53 AM 21.0 °F 11.4 °F 15.1 °F 78% 30.23 in 10.0 mi SE 8.1 mph - N/A   Clear
7:53 AM 23.0 °F 13.9 °F 16.0 °F 74% 30.27 in 10.0 mi SE 8.1 mph - N/A   Clear
8:53 AM 30.0 °F 23.2 °F 17.1 °F 59% 30.28 in 10.0 mi SSE 6.9 mph - N/A   Clear
9:53 AM 35.1 °F 32.2 °F 18.0 °F 50% 30.28 in 10.0 mi East 3.5 mph - N/A   Clear
10:53 AM 39.0 °F - 18.0 °F 43% 30.25 in 10.0 mi Calm Calm - N/A   Clear
11:53 AM 42.1 °F - 15.1 °F 34% 30.25 in 10.0 mi Calm Calm - N/A   Clear
12:53 PM 44.1 °F 40.8 °F 12.0 °F 27% 30.23 in 10.0 mi NNE 5.8 mph - N/A   Clear
1:53 PM 46.0 °F 44.8 °F 10.9 °F 24% 30.19 in 10.0 mi Variable 3.5 mph - N/A   Clear
2:53 PM 50.0 °F - 9.0 °F 19% 30.14 in 10.0 mi NE 9.2 mph - N/A   Clear
3:53 PM 50.0 °F - 8.1 °F 18% 30.11 in 10.0 mi North 9.2 mph - N/A   Clear
4:53 PM 51.1 °F - 9.0 °F 18% 30.11 in 10.0 mi North 9.2 mph - N/A   Clear
5:53 PM 51.1 °F - 9.0 °F 18% 30.12 in 10.0 mi North 6.9 mph - N/A   Clear
6:53 PM 48.9 °F - 12.0 °F 23% 30.17 in 10.0 mi NW 5.8 mph - N/A   Clear
7:53 PM 43.0 °F 38.8 °F 17.1 °F 35% 30.21 in 10.0 mi WNW 6.9 mph - N/A   Clear
8:53 PM 41.0 °F 37.1 °F 17.1 °F 38% 30.20 in 10.0 mi South 5.8 mph - N/A   Clear
9:53 PM 37.0 °F 29.8 °F 17.1 °F 44% 30.21 in 10.0 mi SE 10.4 mph - N/A   Clear
10:53 PM 36.0 °F 28.0 °F 16.0 °F 44% 30.18 in 10.0 mi SE 11.5 mph - N/A   Clear
11:53 PM 33.1 °F 27.7 °F 16.0 °F 50% 30.18 in 10.0 mi SE 5.8 mph - N/A   Clear